Date,TemperatureHighF,TemperatureAvgF,TemperatureLowF,DewpointHighF,DewpointAvgF,DewpointLowF,HumidityHigh,HumidityAvg,HumidityLow,PressureMaxIn,PressureMinIn,WindSpeedMaxMPH,WindSpeedAvgMPH,GustSpeedMaxMPH,PrecipitationSumIn
2013-1-1,76.0,72.5,69.0,-99.9,-99.9,-99.9,0,0,100,30.13,30.03,11,-2,26,0.00
2013-1-2,74.0,72.3,70.0,-99.9,-99.9,-99.9,0,0,100,30.10,29.98,10,-11,18,0.00
2013-1-3,75.0,71.4,69.0,-99.9,-99.9,-99.9,0,0,100,30.10,30.00,14,-16,25,0.00
2013-1-4,75.0,73.0,71.0,-99.9,-99.9,-99.9,0,0,100,30.14,30.03,16,9,30,0.00
2013-1-5,76.0,73.6,71.0,-99.9,-99.9,-99.9,0,0,100,30.15,30.06,18,10,35,0.00
2013-1-6,78.0,74.8,73.0,-99.9,-99.9,-99.9,0,0,100,30.14,30.02,16,8,34,0.00
2013-1-7,78.0,74.5,71.0,-99.9,-99.9,-99.9,0,0,100,30.10,29.98,13,7,26,0.00
2013-1-8,78.0,74.0,71.0,-99.9,-99.9,-99.9,0,0,100,30.03,29.91,14,7,29,0.00
2013-1-9,79.0,74.6,72.0,-99.9,-99.9,-99.9,0,0,100,30.02,29.92,14,6,24,0.00
2013-1-10,80.0,75.3,73.0,-99.9,-99.9,-99.9,0,0,100,30.01,29.93,10,5,22,0.00
2013-1-11,78.0,74.4,73.0,-99.9,-99.9,-99.9,0,0,100,30.00,29.87,11,-10,19,0.00
2013-1-12,78.0,74.2,71.0,-99.9,-99.9,-99.9,0,0,100,29.98,29.90,8,-62,12,0.00
2013-1-13,78.0,73.1,70.0,-99.9,-99.9,-99.9,0,0,100,30.00,29.93,12,-30,16,0.00
2013-1-14,78.0,73.8,70.0,-99.9,-99.9,-99.9,0,0,100,29.98,29.89,17,6,26,0.00
2013-1-15,76.0,71.5,68.0,-99.9,-99.9,-99.9,0,0,100,29.97,29.88,9,-10,13,0.00
2013-1-16,77.0,71.0,64.0,-99.9,-99.9,-99.9,0,0,100,29.97,29.85,11,-80,16,0.00
2013-1-17,76.0,71.1,67.0,-99.9,-99.9,-99.9,0,0,100,29.93,29.83,13,-9,18,0.00
2013-1-18,78.0,71.5,66.0,-99.9,-99.9,-99.9,0,0,100,29.97,29.84,12,-38,15,0.00
2013-1-19,77.0,70.4,64.0,-99.9,-99.9,-99.9,0,0,100,30.05,29.92,10,-3,20,0.00
2013-1-20,75.0,71.2,67.0,-99.9,-99.9,-99.9,0,0,100,30.09,30.00,13,5,21,0.00
2013-1-21,76.0,72.8,70.0,-99.9,-99.9,-99.9,0,0,100,30.14,30.05,16,7,24,0.00
2013-1-22,79.0,73.9,71.0,-99.9,-99.9,-99.9,0,0,100,30.16,30.05,11,-9,19,0.00
2013-1-23,78.0,73.2,71.0,-99.9,-99.9,-99.9,0,0,100,30.10,30.01,11,-31,19,0.00
2013-1-24,76.0,71.2,68.0,-99.9,-99.9,-99.9,0,0,100,30.10,30.02,8,-18,13,0.00
2013-1-25,76.0,72.3,68.0,-99.9,-99.9,-99.9,0,0,100,30.09,29.99,8,-73,12,0.00
2013-1-26,77.0,72.9,68.0,-99.9,-99.9,-99.9,0,0,100,30.05,29.94,11,-66,19,0.00
2013-1-27,78.0,74.1,66.0,-99.9,-99.9,-99.9,0,0,100,30.00,29.89,11,6,18,0.00
2013-1-28,76.0,71.0,65.0,-99.9,-99.9,-99.9,0,0,100,30.00,29.90,7,-38,14,0.00
2013-1-29,79.0,72.6,67.0,-99.9,-99.9,-99.9,0,0,100,30.04,29.93,8,-108,13,0.00
2013-1-30,79.0,72.2,68.0,-99.9,-99.9,-99.9,0,0,100,30.09,30.01,11,-104,15,0.00
2013-1-31,78.0,74.4,71.0,-99.9,-99.9,-99.9,0,0,100,30.11,30.03,14,-10,23,0.00
2013-2-1,79.0,73.9,71.0,-99.9,-99.9,-99.9,0,0,100,30.13,30.04,16,6,27,0.00
2013-2-2,79.0,74.2,72.0,-99.9,-99.9,-99.9,0,0,100,30.17,30.07,12,6,24,0.00
2013-2-3,76.0,72.0,67.0,-99.9,-99.9,-99.9,0,0,100,30.19,30.09,13,-9,22,0.00
2013-2-4,75.0,72.8,71.0,-99.9,-99.9,-99.9,0,0,100,30.16,30.05,15,7,28,0.00
2013-2-5,78.0,73.1,69.0,-99.9,-99.9,-99.9,0,0,100,30.11,30.03,14,6,23,0.00
2013-2-6,77.0,73.0,70.0,-99.9,-99.9,-99.9,0,0,100,30.11,30.03,11,-9,18,0.00
2013-2-7,79.0,74.3,70.0,-99.9,-99.9,-99.9,0,0,100,30.14,30.04,11,-3,19,0.00
2013-2-8,80.0,74.7,70.0,-99.9,-99.9,-99.9,0,0,100,30.14,30.05,9,-17,16,0.00
2013-2-9,79.0,73.7,70.0,-99.9,-99.9,-99.9,0,0,100,30.17,30.06,14,-37,23,0.00
2013-2-10,78.0,74.2,72.0,-99.9,-99.9,-99.9,0,0,100,30.22,30.09,12,6,24,0.00
2013-2-11,75.0,72.2,70.0,-99.9,-99.9,-99.9,0,0,100,30.23,30.13,12,5,23,0.00
2013-2-12,74.0,71.5,69.0,-99.9,-99.9,-99.9,0,0,100,30.22,30.11,10,6,19,0.00
2013-2-13,74.0,71.4,69.0,-99.9,-99.9,-99.9,0,0,100,30.17,30.03,13,-2,21,0.00
2013-2-14,75.0,72.0,70.0,-99.9,-99.9,-99.9,0,0,100,30.12,30.02,11,5,17,0.00
2013-2-15,79.0,74.0,70.0,-99.9,-99.9,-99.9,0,0,100,30.13,30.02,13,6,21,0.00
2013-2-16,77.0,73.8,71.0,-99.9,-99.9,-99.9,0,0,100,30.15,30.04,14,7,28,0.00
2013-2-17,77.0,73.7,70.0,-99.9,-99.9,-99.9,0,0,100,30.19,30.07,16,7,28,0.00
2013-2-18,77.0,73.3,71.0,-99.9,-99.9,-99.9,0,0,100,30.17,30.04,16,9,31,0.00
2013-2-19,75.0,71.6,68.0,-99.9,-99.9,-99.9,0,0,100,30.17,30.06,13,7,31,0.00
2013-2-20,77.0,73.2,71.0,-99.9,-99.9,-99.9,0,0,100,30.16,30.08,12,6,23,0.00
2013-2-21,76.0,72.0,69.0,-99.9,-99.9,-99.9,0,0,100,30.16,30.09,14,6,30,0.00
2013-2-22,76.0,72.6,70.0,-99.9,-99.9,-99.9,0,0,100,30.15,30.06,12,6,20,0.00
2013-2-23,77.0,73.2,70.0,-99.9,-99.9,-99.9,0,0,100,30.14,30.06,12,6,22,0.00
2013-2-24,77.0,73.0,70.0,-99.9,-99.9,-99.9,0,0,100,30.15,30.04,14,6,23,0.00
2013-2-25,77.0,73.2,71.0,-99.9,-99.9,-99.9,0,0,100,30.17,30.06,15,6,23,0.00
2013-2-26,77.0,73.5,70.0,-99.9,-99.9,-99.9,0,0,100,30.19,30.11,13,6,24,0.00
2013-2-27,77.0,73.7,71.0,-99.9,-99.9,-99.9,0,0,100,30.21,30.11,13,8,28,0.00
2013-2-28,77.0,73.6,71.0,-99.9,-99.9,-99.9,0,0,100,30.22,30.13,15,8,26,0.00
2013-3-1,76.0,73.0,71.0,-99.9,-99.9,-99.9,0,0,100,30.20,30.09,16,7,30,0.00
2013-3-2,77.0,73.2,70.0,-99.9,-99.9,-99.9,0,0,100,30.22,30.09,14,7,28,0.00
2013-3-3,77.0,72.9,71.0,-99.9,-99.9,-99.9,0,0,100,30.21,30.12,14,6,22,0.00
2013-3-4,78.0,72.4,70.0,-99.9,-99.9,-99.9,0,0,100,30.21,30.12,13,5,22,0.00
2013-3-5,78.0,73.0,69.0,-99.9,-99.9,-99.9,0,0,100,30.17,30.08,12,-8,20,0.00
2013-3-6,79.0,73.8,71.0,-99.9,-99.9,-99.9,0,0,100,30.16,30.07,12,-9,18,0.00
2013-3-7,79.0,73.0,68.0,-99.9,-99.9,-99.9,0,0,100,30.13,30.00,9,-116,17,0.00
2013-3-8,76.0,72.4,67.0,-99.9,-99.9,-99.9,0,0,100,30.06,29.91,9,-79,13,0.00
2013-3-9,76.0,74.1,71.0,-99.9,-99.9,-99.9,0,0,100,29.96,29.88,15,10,20,0.00
2013-3-10,71.0,68.5,66.0,-99.9,-99.9,-99.9,0,0,100,30.04,29.89,14,-30,19,0.00
2013-3-11,77.0,70.5,64.0,-99.9,-99.9,-99.9,0,0,100,30.08,29.98,9,-115,15,0.00
2013-3-12,76.0,72.2,70.0,-99.9,-99.9,-99.9,0,0,100,30.10,29.99,10,-45,14,0.00
2013-3-13,77.0,71.4,66.0,-99.9,-99.9,-99.9,0,0,100,30.11,30.00,11,-10,16,0.00
2013-3-14,75.0,71.6,69.0,-99.9,-99.9,-99.9,0,0,100,30.11,29.99,11,-67,15,0.00
2013-3-15,74.0,71.2,67.0,-99.9,-99.9,-99.9,0,0,100,30.02,29.92,16,-28,20,0.00
2013-3-16,76.0,70.9,68.0,-99.9,-99.9,-99.9,0,0,100,30.04,29.92,16,0,22,0.00
2013-3-17,75.0,69.2,64.0,-99.9,-99.9,-99.9,0,0,100,30.06,29.95,12,-16,15,0.00
2013-3-18,74.0,69.8,65.0,-99.9,-99.9,-99.9,0,0,100,30.06,29.95,10,-38,14,0.00
2013-3-19,77.0,72.0,66.0,-99.9,-99.9,-99.9,0,0,100,30.04,29.96,8,-60,13,0.00
2013-3-20,78.0,73.7,68.0,-99.9,-99.9,-99.9,0,0,100,30.08,29.97,7,3,11,0.00
2013-3-21,79.0,75.2,71.0,-99.9,-99.9,-99.9,0,0,100,30.08,29.98,7,-88,11,0.00
2013-3-22,77.0,74.6,72.0,-99.9,-99.9,-99.9,0,0,100,30.06,29.95,12,-8,15,0.00
2013-3-23,76.0,72.8,71.0,-99.9,-99.9,-99.9,0,0,100,30.05,29.94,12,-1,25,0.00
2013-3-24,73.0,71.4,70.0,-99.9,-99.9,-99.9,0,0,100,30.07,29.94,10,-45,16,0.00
2013-3-25,79.0,73.6,69.0,-99.9,-99.9,-99.9,0,0,100,30.04,29.94,10,-18,13,0.00
2013-3-26,82.0,74.2,70.0,-99.9,-99.9,-99.9,0,0,100,30.07,29.96,9,-122,15,0.00
2013-3-27,76.0,72.5,71.0,-99.9,-99.9,-99.9,0,0,100,30.06,29.96,9,-45,16,0.00
2013-3-28,78.0,73.7,71.0,-99.9,-99.9,-99.9,0,0,100,30.08,29.97,16,-15,28,0.00
2013-3-29,78.0,73.1,70.0,-99.9,-99.9,-99.9,0,0,100,30.08,30.00,12,-51,19,0.00
2013-3-30,77.0,72.6,70.0,-99.9,-99.9,-99.9,0,0,100,30.08,29.98,9,-45,14,0.00
2013-3-31,75.0,69.6,65.0,-99.9,-99.9,-99.9,0,0,100,30.08,29.98,17,7,22,0.00
2013-4-1,73.0,68.9,65.0,-99.9,-99.9,-99.9,0,0,100,30.04,29.95,17,6,22,0.00
2013-4-2,76.0,69.2,65.0,-99.9,-99.9,-99.9,0,0,100,30.11,30.00,12,-31,16,0.00
2013-4-3,77.0,70.9,65.0,-99.9,-99.9,-99.9,0,0,100,30.10,30.01,11,-31,16,0.00
2013-4-4,79.0,73.9,70.0,-99.9,-99.9,-99.9,0,0,100,30.10,30.00,10,-38,14,0.00
2013-4-5,81.0,75.1,70.0,-99.9,-99.9,-99.9,0,0,100,30.15,30.04,9,-153,16,0.00
2013-4-6,81.0,76.6,73.0,-99.9,-99.9,-99.9,0,0,100,30.18,30.08,12,-80,17,0.00
2013-4-7,83.0,76.8,72.0,-99.9,-99.9,-99.9,0,0,100,30.19,30.09,10,-61,17,0.00
2013-4-8,80.0,76.5,74.0,-99.9,-99.9,-99.9,0,0,100,30.14,29.99,10,-10,16,0.00
2013-4-9,81.0,76.5,73.0,-99.9,-99.9,-99.9,0,0,100,30.10,29.99,10,-3,18,0.00
2013-4-10,82.0,76.3,71.0,-99.9,-99.9,-99.9,0,0,100,30.09,29.99,11,-24,20,0.00
2013-4-11,83.0,76.6,71.0,-99.9,-99.9,-99.9,0,0,100,30.07,29.96,9,-66,15,0.00
2013-4-12,79.0,76.3,74.0,-99.9,-99.9,-99.9,0,0,100,30.01,29.92,9,-41,14,0.00
2013-4-13,78.0,75.6,74.0,-99.9,-99.9,-99.9,0,0,100,29.99,29.86,10,-32,13,0.00
2013-4-14,78.0,74.2,69.0,-99.9,-99.9,-99.9,0,0,100,29.99,29.89,12,-9,17,0.00
2013-4-15,77.0,73.5,71.0,-99.9,-99.9,-99.9,0,0,100,30.07,29.94,9,-81,13,0.00
2013-4-16,79.0,74.6,69.0,-99.9,-99.9,-99.9,0,0,100,30.13,30.01,9,-163,13,0.00
2013-4-17,82.0,77.1,72.0,-99.9,-99.9,-99.9,0,0,100,30.18,30.06,11,-114,21,0.00
2013-4-18,81.0,76.5,74.0,-99.9,-99.9,-99.9,0,0,100,30.16,30.09,12,6,21,0.00
2013-4-19,80.0,75.9,73.0,-99.9,-99.9,-99.9,0,0,100,30.14,30.04,11,5,22,0.00
2013-4-20,80.0,75.9,73.0,-99.9,-99.9,-99.9,0,0,100,30.11,30.02,9,-10,14,0.00
2013-4-21,78.0,75.3,73.0,-99.9,-99.9,-99.9,0,0,100,30.07,29.98,6,-74,9,0.00
2013-4-22,79.0,75.9,72.0,-99.9,-99.9,-99.9,0,0,100,30.07,29.98,12,-44,17,0.00
2013-4-23,78.0,75.9,71.0,-99.9,-99.9,-99.9,0,0,100,30.09,29.99,11,5,15,0.00
2013-4-24,82.0,75.4,70.0,-99.9,-99.9,-99.9,0,0,100,30.11,30.01,9,-45,16,0.00
2013-4-25,83.0,78.0,75.0,-99.9,-99.9,-99.9,0,0,100,30.09,30.01,12,5,21,0.00
2013-4-26,82.0,77.1,74.0,-99.9,-99.9,-99.9,0,0,100,30.07,30.00,11,6,21,0.00
2013-4-27,80.0,76.4,73.0,-99.9,-99.9,-99.9,0,0,100,30.07,29.98,10,-38,16,0.00
2013-4-28,80.0,76.4,73.0,-99.9,-99.9,-99.9,0,0,100,30.06,29.96,9,-66,13,0.00
2013-4-29,81.0,77.8,76.0,-99.9,-99.9,-99.9,0,0,100,30.01,29.92,10,5,15,0.00
2013-4-30,80.0,76.6,74.0,-99.9,-99.9,-99.9,0,0,100,30.05,29.95,10,-59,15,0.00
2013-5-1,83.0,77.8,74.0,-99.9,-99.9,-99.9,0,0,100,30.10,30.01,11,-23,19,0.00
2013-5-2,82.0,77.2,73.0,-99.9,-99.9,-99.9,0,0,100,30.11,30.04,13,-10,19,0.00
2013-5-3,80.0,75.9,73.0,-99.9,-99.9,-99.9,0,0,100,30.10,30.00,11,-37,14,0.00
2013-5-4,79.0,75.8,73.0,-99.9,-99.9,-99.9,0,0,100,30.04,29.92,12,-45,14,0.00
2013-5-5,76.0,73.5,69.0,-99.9,-99.9,-99.9,0,0,100,29.97,29.88,18,-8,23,0.00
2013-5-6,79.0,74.8,71.0,-99.9,-99.9,-99.9,0,0,100,29.99,29.88,11,-10,13,0.00
2013-5-7,77.0,74.2,71.0,-99.9,-99.9,-99.9,0,0,100,30.02,29.93,10,-86,12,0.00
2013-5-8,77.0,74.2,70.0,-99.9,-99.9,-99.9,0,0,100,30.04,29.95,10,-93,11,0.00
2013-5-9,80.0,75.9,73.0,-99.9,-99.9,-99.9,0,0,100,30.11,29.98,9,-31,12,0.00
2013-5-10,83.0,76.3,74.0,-99.9,-99.9,-99.9,0,0,100,30.13,30.04,11,-2,20,0.00
2013-5-11,81.0,75.8,73.0,-99.9,-99.9,-99.9,0,0,100,30.12,30.03,15,7,26,0.00
2013-5-12,80.0,75.6,73.0,-99.9,-99.9,-99.9,0,0,100,30.13,30.03,12,5,26,0.00
2013-5-13,81.0,77.5,75.0,-99.9,-99.9,-99.9,0,0,100,30.10,30.03,14,6,24,0.00
2013-5-14,83.0,78.8,75.0,-99.9,-99.9,-99.9,0,0,100,30.14,30.06,14,6,22,0.00
2013-5-15,83.0,78.2,76.0,-99.9,-99.9,-99.9,0,0,100,30.16,30.09,10,5,20,0.00
2013-5-16,82.0,73.6,74.0,-99.9,-99.9,-99.9,0,0,100,30.16,30.06,13,6,21,0.00
2013-5-17,83.0,77.2,74.0,-99.9,-99.9,-99.9,0,0,100,30.11,30.01,12,6,21,0.00
2013-5-18,81.0,76.8,74.0,-99.9,-99.9,-99.9,0,0,100,30.07,29.97,12,3,15,0.00
2013-5-19,80.0,75.0,72.0,-99.9,-99.9,-99.9,0,0,100,30.05,29.93,10,-3,14,0.00
2013-5-20,78.0,73.8,71.0,-99.9,-99.9,-99.9,0,0,100,30.02,29.93,9,4,13,0.00
2013-5-21,78.0,74.4,70.0,-99.9,-99.9,-99.9,0,0,100,30.03,29.94,8,-80,11,0.00
2013-5-22,83.0,77.5,72.0,-99.9,-99.9,-99.9,0,0,100,30.07,29.96,8,-108,13,0.00
2013-5-23,86.0,79.4,74.0,-99.9,-99.9,-99.9,0,0,100,30.09,29.98,9,-66,17,0.00
2013-5-24,84.0,79.2,76.0,-99.9,-99.9,-99.9,0,0,100,30.10,30.03,13,-16,19,0.00
2013-5-25,82.0,77.9,75.0,-99.9,-99.9,-99.9,0,0,100,30.11,30.03,12,5,22,0.00
2013-5-26,82.0,78.2,75.0,-99.9,-99.9,-99.9,0,0,100,30.13,30.03,15,-16,23,0.00
2013-5-27,82.0,78.3,73.0,-99.9,-99.9,-99.9,0,0,100,30.13,30.05,11,6,21,0.00
2013-5-28,82.0,76.2,72.0,-99.9,-99.9,-99.9,0,0,100,30.12,30.04,9,-24,14,0.00
2013-5-29,83.0,76.6,73.0,-99.9,-99.9,-99.9,0,0,100,30.11,30.03,9,-109,15,0.00
2013-5-30,84.0,78.8,74.0,-99.9,-99.9,-99.9,0,0,100,30.07,29.96,12,-103,19,0.00
2013-5-31,82.0,78.6,75.0,-99.9,-99.9,-99.9,0,0,100,30.08,29.97,11,-10,20,0.00
2013-6-1,83.0,79.4,77.0,-99.9,-99.9,-99.9,0,0,100,30.12,30.02,14,6,24,0.00
2013-6-2,82.0,78.7,75.0,-99.9,-99.9,-99.9,0,0,100,30.12,30.06,11,5,20,0.00
2013-6-3,83.0,79.0,77.0,-99.9,-99.9,-99.9,0,0,100,30.13,30.04,13,6,26,0.00
2013-6-4,83.0,78.7,77.0,-99.9,-99.9,-99.9,0,0,100,30.09,30.01,13,6,25,0.00
2013-6-5,82.0,78.1,76.0,-99.9,-99.9,-99.9,0,0,100,30.08,30.00,13,6,23,0.00
2013-6-6,83.0,78.4,76.0,-99.9,-99.9,-99.9,0,0,100,30.08,29.98,13,6,25,0.00
2013-6-7,82.0,77.5,76.0,-99.9,-99.9,-99.9,0,0,100,30.08,29.99,11,6,21,0.00
2013-6-8,83.0,78.6,76.0,-99.9,-99.9,-99.9,0,0,100,30.09,29.99,13,6,22,0.00
2013-6-9,83.0,78.7,76.0,-99.9,-99.9,-99.9,0,0,100,30.11,30.03,13,5,19,0.00
2013-6-10,82.0,78.3,76.0,-99.9,-99.9,-99.9,0,0,100,30.10,30.01,11,-9,17,0.00
2013-6-11,83.0,78.8,76.0,-99.9,-99.9,-99.9,0,0,100,30.06,29.99,12,5,21,0.00
2013-6-12,83.0,78.7,76.0,-99.9,-99.9,-99.9,0,0,100,30.11,30.03,12,6,25,0.00
2013-6-13,82.0,77.8,75.0,-99.9,-99.9,-99.9,0,0,100,30.14,30.07,11,7,25,0.00
2013-6-14,82.0,77.0,73.0,-99.9,-99.9,-99.9,0,0,100,30.12,30.01,13,6,21,0.00
2013-6-15,82.0,77.8,75.0,-99.9,-99.9,-99.9,0,0,100,30.06,29.96,13,5,23,0.00
2013-6-16,82.0,77.6,75.0,-99.9,-99.9,-99.9,0,0,100,30.05,29.96,11,5,18,0.00
2013-6-17,82.0,77.9,74.0,-99.9,-99.9,-99.9,0,0,100,30.12,30.00,12,6,19,0.00
2013-6-18,83.0,78.5,74.0,-99.9,-99.9,-99.9,0,0,100,30.11,30.03,11,6,21,0.00
2013-6-19,83.0,78.6,76.0,-99.9,-99.9,-99.9,0,0,100,30.09,30.04,13,-2,21,0.00